[[{"header":{"parameterUnit":"m.s-1","parameterCategory":1,"la1":30.2991,"la2":30.254,"lo1":-89.0895,"lo2":-89.0444,"dy":0.0017,"dx":0.0017,"nx":28,"ny":28,"refTime":"2024-07-12T09:00:00:Z","depth":0,"parameterNumber":2,"parameterNumberName":"U-component_of_WINDS"},"data":[0,0,0,0,0,0,0,0,0,0,0,0,0,0,0,0,0,0,0,0,0,0,0,0,0,0,0,0,0,0,0,0,0,0,0,0,0,0,0,0,0,0,0,0,0,0,0,0,0,0,0,0,0,0,0,0,0,0,1.6332,1.6332,0,1.6422,1.6423,1.6424,1.6423,1.6421,1.642,1.6419,1.6516,1.6519,1.6523,0,0,0,0,0,0,0,0,0,0,0,0,0,1.616,1.6164,1.6331,1.6333,1.6334,1.6422,1.6423,1.6425,1.6423,1.6421,1.642,1.6418,1.6514,1.6519,1.6523,0,0,0,0,0,0,0,0,0,0,0,0,0,1.6241,1.6165,1.6331,1.6343,1.6345,1.6422,1.6423,1.6425,1.6423,1.6421,1.6419,1.6418,1.6513,1.6518,1.6524,1.6595,0,0,1.6541,1.6543,0,0,0,0,0,0,0,0,1.6237,1.6248,1.634,1.6343,1.6345,1.6409,1.6398,1.6482,1.6424,1.6394,1.6419,1.6417,1.6482,1.649,1.6511,1.66,1.6604,1.6541,1.6545,1.6547,1.6549,0,0,0,0,0,0,0,1.6231,1.6244,1.6367,1.6342,1.6345,1.6346,1.6355,1.6414,1.6447,1.6396,1.6396,1.6407,1.6483,1.6506,1.6513,1.6605,1.6541,1.6546,1.655,1.6552,1.6759,1.6761,0,0,0,0,0,0,1.6223,1.6239,1.6365,1.637,1.6285,1.635,1.6361,1.6391,1.6447,1.6453,1.6408,1.6406,1.6497,1.6507,1.6517,1.6605,1.6547,1.6552,1.6556,1.6757,1.6759,1.6762,0,0,0,0,0,0,1.6219,1.6234,1.6361,1.6305,1.6321,1.6355,1.6389,1.6393,1.6416,1.6456,1.6462,1.6425,1.6496,1.6509,1.6576,1.6608,1.6555,1.656,1.6754,1.6757,1.676,1.6782,0,0,0,0,0,0,1.6214,1.6232,1.6259,1.6305,1.6324,1.6417,1.6391,1.6396,1.6425,1.6424,1.6473,1.648,1.6496,1.6568,1.6581,1.6615,1.6564,1.6751,1.6756,1.6759,1.6778,1.6785,1.6791,0,0,0,0,0,1.6208,1.6262,1.626,1.6275,1.6358,1.6419,1.643,1.6446,1.6428,1.6456,1.6481,1.6478,1.6602,1.6574,1.659,1.6626,1.6749,1.6754,1.6759,1.6775,1.6784,1.6791,0,0,0,0,0,0,1.6219,1.6268,1.6267,1.6337,1.6374,1.6419,1.6454,1.6454,1.6498,1.6495,1.6514,1.6525,1.6592,1.6616,1.6584,1.6699,1.6674,1.6682,1.6681,1.6689,1.6696,1.6689,1.6569,0,0,0,0,0,1.623,1.6274,1.6315,1.6373,1.6392,1.642,1.6447,1.6456,1.6495,1.6511,1.6542,1.6581,1.6629,1.666,1.6707,1.6781,1.6793,1.6814,1.682,1.6825,1.6833,1.6875,1.6885,1.6778,1.6778,1.6777,0,0,1.6252,1.6284,1.6312,1.6376,1.6406,1.6453,1.6433,1.6483,1.6519,1.6519,1.6584,1.6608,1.6654,1.6725,1.6758,1.6747,1.6865,1.6832,1.6835,1.684,1.6881,1.6891,1.6901,1.6781,1.678,1.678,0,0,1.6317,1.6346,1.6398,1.6428,1.6472,1.6491,1.6503,1.6548,1.6564,1.6629,1.6631,1.6674,1.6756,1.6789,1.6816,1.6894,1.6894,1.6909,1.6943,1.6985,1.6993,1.7001,1.703,1.704,1.6916,1.6916,1.6916,0,1.634,1.641,1.6425,1.6476,1.6505,1.6506,1.656,1.6589,1.6647,1.6668,1.6654,1.6757,1.6788,1.6867,1.6887,1.6908,1.6924,1.6904,1.699,1.6998,1.7006,1.7034,1.7044,1.6918,1.6917,1.6917,1.6917,0,1.6436,1.6485,1.6522,1.6577,1.661,1.6662,1.6686,1.6718,1.6725,1.6745,1.6812,1.6849,1.6903,1.6923,1.693,1.7004,1.6996,1.6986,1.6962,1.7017,1.7044,1.7055,1.692,1.6919,1.6919,1.6918,0,0,1.6511,1.6574,1.6587,1.6613,1.6662,1.6701,1.6754,1.6806,1.6834,1.6874,1.692,1.6989,1.6981,1.7012,1.7023,1.7059,1.712,1.7045,1.7047,1.7059,1.7206,1.7213,1.7225,1.712,1.7122,1.7124,1.7202,0,1.6582,1.6675,1.669,1.6772,1.6818,1.682,1.6867,1.6903,1.6924,1.6967,1.699,1.7039,1.7024,1.7043,1.7079,1.7105,1.715,1.71,1.7164,1.7166,1.7153,1.7239,1.7247,1.7319,1.7213,1.7214,1.7216,0,1.6677,1.6719,1.6805,1.685,1.687,1.6911,1.6961,1.7001,1.7043,1.7056,1.7091,1.7098,1.7154,1.7127,1.7206,1.7171,1.7198,1.7216,1.7219,1.7226,1.7195,1.725,1.7343,1.7354,1.7232,1.7231,1.723,0,1.6725,1.6803,1.6865,1.6886,1.6939,1.6969,1.6992,1.7032,1.7063,1.7107,1.7127,1.7177,1.7205,1.7244,1.7265,1.7243,1.7343,1.7317,1.7357,1.7356,1.7378,1.7376,1.7478,1.7394,1.7394,1.7394,1.7394,0,1.6803,1.6856,1.6887,1.6925,1.6985,1.7002,1.7061,1.7085,1.712,1.7164,1.717,1.7211,1.7236,1.7281,1.7298,1.7362,1.7374,1.7387,1.7391,1.7387,1.7385,1.7405,1.7401,1.7397,1.7396,1.7396,1.7395,0,1.6866,1.6888,1.6956,1.7001,1.7014,1.7056,1.7095,1.7133,1.7153,1.7209,1.7223,1.7256,1.731,1.7334,1.7401,1.7412,1.7485,1.7485,1.747,1.7472,1.751,1.7507,1.7629,1.7646,1.755,1.7551,1.7552,0,1.6915,1.6955,1.7004,1.7034,1.7058,1.7105,1.7136,1.7156,1.7188,1.7239,1.7272,1.7325,1.7369,1.7455,1.7486,1.7537,1.7539,1.7579,1.7547,1.7542,1.7541,1.7539,1.7544,1.7585,1.7585,1.7586,1.7587,0,1.6999,1.7009,1.7053,1.7101,1.7138,1.7177,1.7216,1.724,1.7266,1.7302,1.7357,1.7391,1.7459,1.7513,1.7566,1.7592,1.7595,1.7596,1.7608,1.7605,1.7595,1.7602,1.7487,1.7594,1.7593,1.7593,1.7592,1.7592,1.7058,1.7094,1.7134,1.7184,1.7215,1.7251,1.7289,1.7314,1.736,1.7416,1.7425,1.7483,1.7525,1.7597,1.7625,1.7672,1.7663,1.768,1.7685,1.7689,1.7692,1.7587,1.7682,1.7682,1.7682,1.7682,1.7681,0,1.7143,1.7169,1.7214,1.7268,1.7307,1.7305,1.7348,1.7381,1.7432,1.7471,1.7514,1.7577,1.763,1.7664,1.7718,1.7749,1.7751,1.7762,1.7761,1.7767,1.7696,1.7681,1.7759,1.7759,1.7759,1.7759,1.7759,1.7759,1.7193,1.7255,1.7269,1.7347,1.7373,1.743,1.7455,1.7489,1.752,1.759,1.7633,1.7655,1.7692,1.7749,1.7797,1.7806,1.7826,1.7838,1.7846,1.778,1.7772,1.7764,1.775,1.7841,1.7842,1.7913,1.7914,1.7915]},{"header":{"parameterUnit":"m.s-1","parameterCategory":1,"la1":30.2991,"la2":30.254,"lo1":-89.0895,"lo2":-89.0444,"dy":0.0017,"dx":0.0017,"nx":28,"ny":28,"refTime":"2024-07-12T09:00:00:Z","depth":0,"parameterNumber":3,"parameterNumberName":"V-component_of_WINDS"},"data":[0,0,0,0,0,0,0,0,0,0,0,0,0,0,0,0,0,0,0,0,0,0,0,0,0,0,0,0,0,0,0,0,0,0,0,0,0,0,0,0,0,0,0,0,0,0,0,0,0,0,0,0,0,0,0,0,0,0,-0.0769,-0.077,0,-0.0797,-0.0798,-0.0798,-0.0819,-0.0819,-0.0819,-0.0819,-0.0848,-0.0848,-0.0849,0,0,0,0,0,0,0,0,0,0,0,0,0,-0.0735,-0.0736,-0.0769,-0.077,-0.077,-0.0797,-0.0798,-0.0798,-0.0819,-0.0819,-0.0819,-0.0819,-0.0848,-0.0848,-0.0849,0,0,0,0,0,0,0,0,0,0,0,0,0,-0.0755,-0.0736,-0.0769,-0.0784,-0.0785,-0.0797,-0.0798,-0.0798,-0.0819,-0.0819,-0.0819,-0.082,-0.0848,-0.0848,-0.0849,-0.0849,0,0,-0.0852,-0.0852,0,0,0,0,0,0,0,0,-0.0754,-0.0757,-0.0781,-0.0783,-0.0785,-0.0805,-0.0796,-0.0815,-0.0819,-0.0806,-0.0819,-0.082,-0.0833,-0.0835,-0.084,-0.085,-0.0852,-0.0852,-0.0853,-0.0853,-0.0853,0,0,0,0,0,0,0,-0.0753,-0.0755,-0.0781,-0.0782,-0.0784,-0.0789,-0.0792,-0.08,-0.0818,-0.0807,-0.0809,-0.0812,-0.0834,-0.0839,-0.0841,-0.0852,-0.0852,-0.0853,-0.0853,-0.0854,-0.0866,-0.0865,0,0,0,0,0,0,-0.0749,-0.0754,-0.078,-0.0781,-0.077,-0.079,-0.0793,-0.0798,-0.0818,-0.0821,-0.0812,-0.0813,-0.0838,-0.084,-0.0842,-0.0844,-0.0853,-0.0854,-0.0854,-0.0866,-0.0866,-0.0865,0,0,0,0,0,0,-0.0748,-0.0751,-0.0779,-0.0768,-0.0772,-0.079,-0.0795,-0.0799,-0.0803,-0.0821,-0.0824,-0.0813,-0.0838,-0.0841,-0.0848,-0.0846,-0.0854,-0.0855,-0.0866,-0.0866,-0.0865,-0.0848,0,0,0,0,0,0,-0.0747,-0.0751,-0.075,-0.0768,-0.0773,-0.0783,-0.0795,-0.0799,-0.0805,-0.0807,-0.0823,-0.0827,-0.0838,-0.0846,-0.0848,-0.0847,-0.0856,-0.0866,-0.0866,-0.0865,-0.0849,-0.0847,-0.0846,0,0,0,0,0,-0.0746,-0.0744,-0.075,-0.0753,-0.0773,-0.0783,-0.0786,-0.0799,-0.0805,-0.0805,-0.0817,-0.0826,-0.0845,-0.0847,-0.0849,-0.0848,-0.0866,-0.0866,-0.0866,-0.085,-0.0848,-0.0846,0,0,0,0,0,0,-0.0725,-0.0747,-0.0754,-0.0757,-0.0768,-0.0786,-0.0787,-0.0796,-0.0806,-0.0807,-0.0824,-0.0827,-0.0833,-0.0841,-0.0842,-0.085,-0.0857,-0.0857,-0.0844,-0.0842,-0.0841,-0.0839,-0.0856,0,0,0,0,0,-0.0721,-0.0728,-0.0746,-0.0748,-0.0753,-0.0769,-0.0774,-0.0784,-0.0796,-0.08,-0.0812,-0.0824,-0.0833,-0.0838,-0.0847,-0.085,-0.0855,-0.0851,-0.0849,-0.0848,-0.0848,-0.0852,-0.0851,-0.0864,-0.0864,-0.0864,0,0,-0.0713,-0.0725,-0.0728,-0.0744,-0.0753,-0.076,-0.0773,-0.0779,-0.0785,-0.0801,-0.0809,-0.0818,-0.0832,-0.0837,-0.084,-0.0845,-0.0845,-0.0847,-0.0846,-0.0847,-0.0851,-0.085,-0.0849,-0.0863,-0.0863,-0.0864,0,0,-0.0701,-0.0711,-0.0714,-0.0724,-0.0738,-0.0749,-0.075,-0.0767,-0.0774,-0.0782,-0.0795,-0.0802,-0.0816,-0.0826,-0.0833,-0.0827,-0.0836,-0.0829,-0.0821,-0.0825,-0.0824,-0.0823,-0.0822,-0.0821,-0.0829,-0.0829,-0.0829,0,-0.0689,-0.07,-0.0714,-0.0721,-0.0728,-0.0743,-0.0747,-0.0756,-0.0772,-0.0777,-0.0781,-0.0801,-0.0811,-0.082,-0.0819,-0.0823,-0.0826,-0.0827,-0.0823,-0.0822,-0.0821,-0.082,-0.082,-0.0828,-0.0828,-0.0828,-0.0828,0,-0.0685,-0.0692,-0.0693,-0.0709,-0.0716,-0.0721,-0.0737,-0.0742,-0.0752,-0.0762,-0.0771,-0.0784,-0.0797,-0.08,-0.0808,-0.081,-0.0812,-0.0819,-0.0827,-0.0819,-0.0818,-0.0818,-0.0827,-0.0827,-0.0827,-0.0828,0,0,-0.066,-0.0686,-0.0686,-0.0694,-0.0712,-0.0718,-0.0724,-0.0736,-0.0741,-0.0752,-0.0759,-0.0771,-0.0778,-0.0786,-0.0797,-0.08,-0.0795,-0.0807,-0.0807,-0.0805,-0.0799,-0.0794,-0.0794,-0.0802,-0.0802,-0.0802,-0.0799,0,-0.0652,-0.0664,-0.0678,-0.0685,-0.0693,-0.0708,-0.0714,-0.0726,-0.0736,-0.0745,-0.0756,-0.0765,-0.0774,-0.0779,-0.0782,-0.0795,-0.0795,-0.0795,-0.0808,-0.0809,-0.0805,-0.0793,-0.0787,-0.0784,-0.0798,-0.0798,-0.0798,0,-0.0644,-0.0655,-0.0663,-0.0681,-0.0685,-0.069,-0.0703,-0.0711,-0.0725,-0.0733,-0.0742,-0.0753,-0.0761,-0.0768,-0.078,-0.078,-0.0787,-0.0794,-0.0794,-0.0796,-0.0803,-0.0795,-0.0783,-0.0782,-0.0798,-0.0798,-0.0798,0,-0.0627,-0.0644,-0.0651,-0.0657,-0.0679,-0.0682,-0.0691,-0.0705,-0.0712,-0.0724,-0.0729,-0.0742,-0.0749,-0.0759,-0.0773,-0.0777,-0.0784,-0.0792,-0.0791,-0.0791,-0.0792,-0.0792,-0.0781,-0.0795,-0.0795,-0.0795,-0.0795,0,-0.0617,-0.0621,-0.0644,-0.0648,-0.0654,-0.067,-0.0676,-0.0686,-0.07,-0.0707,-0.0721,-0.0728,-0.0747,-0.0756,-0.0768,-0.0777,-0.0779,-0.0786,-0.0789,-0.0785,-0.0785,-0.079,-0.0791,-0.0795,-0.0795,-0.0795,-0.0795,0,-0.0599,-0.0614,-0.0623,-0.0643,-0.0648,-0.0651,-0.0668,-0.0674,-0.0686,-0.0695,-0.0698,-0.0716,-0.0728,-0.0744,-0.076,-0.0768,-0.0776,-0.078,-0.0771,-0.0773,-0.0772,-0.0772,-0.0764,-0.0764,-0.0778,-0.0778,-0.0778,0,-0.0591,-0.0595,-0.0616,-0.0622,-0.063,-0.064,-0.0647,-0.0664,-0.0671,-0.0689,-0.0692,-0.0705,-0.0716,-0.0734,-0.075,-0.0763,-0.0768,-0.0765,-0.077,-0.0766,-0.0769,-0.0769,-0.077,-0.0763,-0.0763,-0.0763,-0.0763,0,-0.0577,-0.0585,-0.0595,-0.0608,-0.0617,-0.0628,-0.064,-0.0644,-0.0664,-0.0672,-0.0684,-0.0693,-0.071,-0.0723,-0.0738,-0.0748,-0.0759,-0.0761,-0.0761,-0.0757,-0.0752,-0.0756,-0.0768,-0.0761,-0.0761,-0.0761,-0.0761,-0.0761,-0.0565,-0.057,-0.0585,-0.0596,-0.0607,-0.0618,-0.0625,-0.0638,-0.0648,-0.0663,-0.0673,-0.0685,-0.0701,-0.0722,-0.0732,-0.0742,-0.0746,-0.0747,-0.0747,-0.0747,-0.0746,-0.075,-0.0745,-0.0745,-0.0745,-0.0745,-0.0745,0,-0.0552,-0.0563,-0.0574,-0.059,-0.0599,-0.0609,-0.0623,-0.063,-0.064,-0.0654,-0.0665,-0.068,-0.0693,-0.0709,-0.0723,-0.0729,-0.0734,-0.0732,-0.0732,-0.0734,-0.0741,-0.074,-0.0727,-0.0727,-0.0727,-0.0727,-0.0727,-0.0727,-0.0547,-0.0556,-0.0565,-0.058,-0.0591,-0.0603,-0.0611,-0.0621,-0.0632,-0.0648,-0.0659,-0.067,-0.0685,-0.07,-0.0713,-0.0718,-0.0723,-0.0719,-0.0725,-0.0732,-0.0733,-0.0735,-0.0734,-0.072,-0.072,-0.0717,-0.0717,-0.0717]}]]